Time,TemperatureF,DewpointF,PressureIn,WindDirection,WindDirectionDegrees,WindSpeedMPH,WindSpeedGustMPH,Humidity,HourlyPrecipIn,Conditions,Clouds,dailyrainin,SoftwareType,DateUTC
2013-02-15 00:00:00,45.5,34.8,30.55,NW,323,3.0,7.0,66,0.00,,---,0.00,VWS V14.01,2013-02-15 06:00:00,
2013-02-15 00:05:00,45.4,35.1,30.56,North,350,7.0,10.0,67,0.00,,---,0.00,VWS V14.01,2013-02-15 06:05:00,
2013-02-15 00:10:00,45.4,35.5,30.56,NNW,335,2.0,10.0,68,0.00,,---,0.00,VWS V14.01,2013-02-15 06:10:00,
2013-02-15 00:15:00,45.2,35.3,30.56,NNW,345,5.0,5.0,68,0.00,,---,0.00,VWS V14.01,2013-02-15 06:15:00,
2013-02-15 00:20:00,45.2,34.9,30.56,NW,316,5.0,11.0,67,0.00,,---,0.00,VWS V14.01,2013-02-15 06:20:00,
2013-02-15 00:25:00,45.1,35.2,30.56,NNW,336,5.0,7.0,68,0.00,,---,0.00,VWS V14.01,2013-02-15 06:25:00,
2013-02-15 00:30:00,45.1,35.5,30.56,NNW,340,1.0,7.0,69,0.00,,---,0.00,VWS V14.01,2013-02-15 06:30:00,
2013-02-15 00:35:00,44.9,35.4,30.56,NNW,329,2.0,6.0,69,0.00,,---,0.00,VWS V14.01,2013-02-15 06:35:00,
2013-02-15 00:40:00,44.8,35.3,30.56,NW,321,5.0,6.0,69,0.00,,---,0.00,VWS V14.01,2013-02-15 06:40:00,
2013-02-15 00:45:00,44.6,34.3,30.56,WNW,303,5.0,7.0,67,0.00,,---,0.00,VWS V14.01,2013-02-15 06:45:00,
2013-02-15 00:50:00,44.5,33.9,30.56,NNW,329,1.0,7.0,66,0.00,,---,0.00,VWS V14.01,2013-02-15 06:50:00,
2013-02-15 00:55:00,44.5,33.1,30.56,NNW,329,3.0,4.0,64,0.00,,---,0.00,VWS V14.01,2013-02-15 06:55:00,
2013-02-15 01:00:00,44.3,32.9,30.56,NNW,329,2.0,5.0,64,0.00,,---,0.00,VWS V14.01,2013-02-15 07:00:00,
2013-02-15 01:05:00,44.2,32.4,30.56,NNW,328,2.0,4.0,63,0.00,,---,0.00,VWS V14.01,2013-02-15 07:05:00,
2013-02-15 01:10:00,44.2,32.4,30.56,NNW,328,2.0,5.0,63,0.00,,---,0.00,VWS V14.01,2013-02-15 07:10:00,
2013-02-15 01:15:00,44.1,31.9,30.56,NW,325,3.0,5.0,62,0.00,,---,0.00,VWS V14.01,2013-02-15 07:15:00,
2013-02-15 01:20:00,43.9,31.7,30.56,NW,325,4.0,5.0,62,0.00,,---,0.00,VWS V14.01,2013-02-15 07:20:00,
2013-02-15 01:25:00,43.9,31.7,30.56,NW,315,1.0,5.0,62,0.00,,---,0.00,VWS V14.01,2013-02-15 07:25:00,
2013-02-15 01:30:00,43.8,31.6,30.56,NW,323,5.0,6.0,62,0.00,,---,0.00,VWS V14.01,2013-02-15 07:30:00,
2013-02-15 01:35:00,43.6,31.5,30.56,NNW,330,4.0,8.0,62,0.00,,---,0.00,VWS V14.01,2013-02-15 07:35:00,
2013-02-15 01:40:00,43.5,31.0,30.56,NW,315,4.0,8.0,61,0.00,,---,0.00,VWS V14.01,2013-02-15 07:40:00,
2013-02-15 01:45:00,43.5,31.0,30.56,NW,318,6.0,7.0,61,0.00,,---,0.00,VWS V14.01,2013-02-15 07:45:00,
2013-02-15 01:50:00,43.3,31.2,30.56,NW,322,7.0,9.0,62,0.00,,---,0.00,VWS V14.01,2013-02-15 07:50:00,
2013-02-15 01:55:00,43.3,31.2,30.56,NW,309,4.0,7.0,62,0.00,,---,0.00,VWS V14.01,2013-02-15 07:55:00,
2013-02-15 02:00:00,43.2,31.1,30.56,NNW,342,2.0,7.0,62,0.00,,---,0.00,VWS V14.01,2013-02-15 08:00:00,
2013-02-15 02:05:00,43.2,31.1,30.57,NW,315,1.0,6.0,62,0.00,,---,0.00,VWS V14.01,2013-02-15 08:05:00,
2013-02-15 02:10:00,43.1,30.6,30.57,NNW,327,1.0,6.0,61,0.00,,---,0.00,VWS V14.01,2013-02-15 08:10:00,
2013-02-15 02:15:00,43.1,30.6,30.57,NNW,327,3.0,4.0,61,0.00,,---,0.00,VWS V14.01,2013-02-15 08:15:00,
2013-02-15 02:20:00,42.9,30.0,30.57,NW,323,0.0,7.0,60,0.00,,---,0.00,VWS V14.01,2013-02-15 08:20:00,
2013-02-15 02:25:00,42.8,29.9,30.57,NW,313,2.0,6.0,60,0.00,,---,0.00,VWS V14.01,2013-02-15 08:25:00,
2013-02-15 02:30:00,42.8,29.9,30.57,WNW,300,2.0,6.0,60,0.00,,---,0.00,VWS V14.01,2013-02-15 08:30:00,
2013-02-15 02:35:00,42.5,30.0,30.58,NW,319,4.0,6.0,61,0.00,,---,0.00,VWS V14.01,2013-02-15 08:35:00,
2013-02-15 02:40:00,42.5,30.0,30.58,NW,312,3.0,7.0,61,0.00,,---,0.00,VWS V14.01,2013-02-15 08:40:00,
2013-02-15 02:45:00,42.3,29.8,30.58,NW,321,3.0,5.0,61,0.00,,---,0.00,VWS V14.01,2013-02-15 08:45:00,
2013-02-15 02:50:00,42.2,29.7,30.58,NW,321,2.0,5.0,61,0.00,,---,0.00,VWS V14.01,2013-02-15 08:50:00,
2013-02-15 02:55:00,42.1,30.0,30.58,NNW,328,3.0,9.0,62,0.00,,---,0.00,VWS V14.01,2013-02-15 08:55:00,
2013-02-15 03:00:00,41.9,29.9,30.58,NNW,328,4.0,9.0,62,0.00,,---,0.00,VWS V14.01,2013-02-15 09:00:00,
2013-02-15 03:05:00,41.8,29.4,30.58,NNW,328,2.0,4.0,61,0.00,,---,0.00,VWS V14.01,2013-02-15 09:05:00,
2013-02-15 03:10:00,41.6,29.2,30.58,NNW,327,2.0,5.0,61,0.00,,---,0.00,VWS V14.01,2013-02-15 09:10:00,
2013-02-15 03:15:00,41.3,28.9,30.58,NNW,327,4.0,4.0,61,0.00,,---,0.00,VWS V14.01,2013-02-15 09:15:00,
2013-02-15 03:20:00,41.2,29.2,30.59,NW,326,1.0,5.0,62,0.00,,---,0.00,VWS V14.01,2013-02-15 09:20:00,
2013-02-15 03:25:00,41.1,29.5,30.59,NW,320,5.0,7.0,63,0.00,,---,0.00,VWS V14.01,2013-02-15 09:25:00,
2013-02-15 03:30:00,40.8,29.6,30.59,NW,309,7.0,14.0,64,0.00,,---,0.00,VWS V14.01,2013-02-15 09:30:00,
2013-02-15 03:35:00,40.6,30.1,30.60,NW,323,5.0,9.0,66,0.00,,---,0.00,VWS V14.01,2013-02-15 09:35:00,
2013-02-15 03:40:00,40.5,30.4,30.60,NNW,335,1.0,9.0,67,0.00,,---,0.00,VWS V14.01,2013-02-15 09:40:00,
2013-02-15 03:45:00,40.3,30.2,30.60,NNW,335,0.0,3.0,67,0.00,,---,0.00,VWS V14.01,2013-02-15 09:45:00,
2013-02-15 03:50:00,40.1,30.4,30.60,NW,322,3.0,6.0,68,0.00,,---,0.00,VWS V14.01,2013-02-15 09:50:00,
2013-02-15 03:55:00,39.9,30.2,30.60,NW,323,3.0,10.0,68,0.00,,---,0.00,VWS V14.01,2013-02-15 09:55:00,
2013-02-15 04:00:00,39.8,30.1,30.60,NW,325,6.0,11.0,68,0.00,,---,0.00,VWS V14.01,2013-02-15 10:00:00,
2013-02-15 04:05:00,39.6,30.3,30.61,NNW,336,7.0,9.0,69,0.00,,---,0.00,VWS V14.01,2013-02-15 10:05:00,
2013-02-15 04:10:00,39.5,30.5,30.61,NNW,332,4.0,9.0,70,0.00,,---,0.00,VWS V14.01,2013-02-15 10:10:00,
2013-02-15 04:15:00,39.3,30.4,30.61,NNW,332,2.0,5.0,70,0.00,,---,0.00,VWS V14.01,2013-02-15 10:15:00,
2013-02-15 04:20:00,39.2,30.2,30.62,NNW,332,5.0,5.0,70,0.00,,---,0.00,VWS V14.01,2013-02-15 10:20:00,
2013-02-15 04:25:00,39.1,30.2,30.62,NW,313,3.0,9.0,70,0.00,,---,0.00,VWS V14.01,2013-02-15 10:25:00,
2013-02-15 04:30:00,38.8,29.5,30.62,North,9,10.0,12.0,69,0.00,,---,0.00,VWS V14.01,2013-02-15 10:30:00,
2013-02-15 04:34:00,38.6,29.3,30.62,NNW,327,4.0,11.0,69,0.00,,---,0.00,VWS V14.01,2013-02-15 10:34:00,
2013-02-15 04:39:00,38.3,29.0,30.62,NW,316,6.0,12.0,69,0.00,,---,0.00,VWS V14.01,2013-02-15 10:39:00,
2013-02-15 04:40:00,38.3,29.0,30.62,NW,311,7.0,12.0,69,0.00,,---,0.00,VWS V14.01,2013-02-15 10:40:00,
2013-02-15 04:44:00,38.2,28.9,30.62,NW,323,6.0,12.0,69,0.00,,---,0.00,VWS V14.01,2013-02-15 10:44:00,
2013-02-15 04:49:00,38.2,28.9,30.64,WNW,294,9.0,13.0,69,0.00,,---,0.00,VWS V14.01,2013-02-15 10:49:00,
2013-02-15 04:50:00,38.0,28.8,30.64,NW,324,4.0,13.0,69,0.00,,---,0.00,VWS V14.01,2013-02-15 10:50:00,
2013-02-15 04:54:00,38.0,28.8,30.64,NNW,340,4.0,8.0,69,0.00,,---,0.00,VWS V14.01,2013-02-15 10:54:00,
2013-02-15 04:59:00,37.9,29.0,30.64,WNW,300,5.0,10.0,70,0.00,,---,0.00,VWS V14.01,2013-02-15 10:59:00,
2013-02-15 05:00:00,37.9,29.0,30.64,NNW,336,3.0,10.0,70,0.00,,---,0.00,VWS V14.01,2013-02-15 11:00:00,
2013-02-15 05:04:00,37.8,28.9,30.64,NNW,329,2.0,6.0,70,0.00,,---,0.00,VWS V14.01,2013-02-15 11:04:00,
2013-02-15 05:09:00,37.6,28.7,30.64,NW,307,9.0,9.0,70,0.00,,---,0.00,VWS V14.01,2013-02-15 11:09:00,
2013-02-15 05:10:00,37.5,28.6,30.64,NNW,338,5.0,9.0,70,0.00,,---,0.00,VWS V14.01,2013-02-15 11:10:00,
2013-02-15 05:14:00,37.3,28.1,30.64,NW,315,4.0,12.0,69,0.00,,---,0.00,VWS V14.01,2013-02-15 11:14:00,
2013-02-15 05:19:00,37.0,27.8,30.65,WNW,294,5.0,12.0,69,0.00,,---,0.00,VWS V14.01,2013-02-15 11:19:00,
2013-02-15 05:20:00,37.0,27.8,30.65,West,280,6.0,12.0,69,0.00,,---,0.00,VWS V14.01,2013-02-15 11:20:00,
2013-02-15 05:24:00,36.9,27.3,30.65,NW,306,3.0,9.0,68,0.00,,---,0.00,VWS V14.01,2013-02-15 11:24:00,
2013-02-15 05:29:00,36.8,27.2,30.65,NW,316,3.0,12.0,68,0.00,,---,0.00,VWS V14.01,2013-02-15 11:29:00,
2013-02-15 05:30:00,36.8,27.2,30.66,WNW,288,10.0,12.0,68,0.00,,---,0.00,VWS V14.01,2013-02-15 11:30:00,
2013-02-15 05:34:00,36.6,27.4,30.66,NW,315,5.0,10.0,69,0.00,,---,0.00,VWS V14.01,2013-02-15 11:34:00,
2013-02-15 05:39:00,36.3,26.8,30.66,NW,326,4.0,10.0,68,0.00,,---,0.00,VWS V14.01,2013-02-15 11:39:00,
2013-02-15 05:40:00,36.2,26.7,30.66,WNW,292,4.0,10.0,68,0.00,,---,0.00,VWS V14.01,2013-02-15 11:40:00,
2013-02-15 05:44:00,36.2,27.0,30.66,NW,321,5.0,7.0,69,0.00,,---,0.00,VWS V14.01,2013-02-15 11:44:00,
2013-02-15 05:49:00,36.0,26.8,30.67,WNW,293,5.0,7.0,69,0.00,,---,0.00,VWS V14.01,2013-02-15 11:49:00,
2013-02-15 05:50:00,35.9,26.7,30.67,NW,320,5.0,7.0,69,0.00,,---,0.00,VWS V14.01,2013-02-15 11:50:00,
2013-02-15 05:54:00,35.9,27.1,30.67,NNW,331,4.0,13.0,70,0.00,,---,0.00,VWS V14.01,2013-02-15 11:54:00,
2013-02-15 05:59:00,35.8,27.3,30.67,NNW,331,7.0,17.0,71,0.00,,---,0.00,VWS V14.01,2013-02-15 11:59:00,
2013-02-15 06:00:00,35.6,27.1,30.67,NNW,336,6.0,17.0,71,0.00,,---,0.00,VWS V14.01,2013-02-15 12:00:00,
2013-02-15 06:04:00,35.5,27.4,30.67,NNW,342,10.0,13.0,72,0.00,,---,0.00,VWS V14.01,2013-02-15 12:04:00,
2013-02-15 06:09:00,35.3,27.2,30.67,NNW,336,6.0,13.0,72,0.00,,---,0.00,VWS V14.01,2013-02-15 12:09:00,
2013-02-15 06:10:00,35.2,27.1,30.67,NNW,327,11.0,13.0,72,0.00,,---,0.00,VWS V14.01,2013-02-15 12:10:00,
2013-02-15 06:14:00,35.0,26.9,30.67,NW,306,7.0,11.0,72,0.00,,---,0.00,VWS V14.01,2013-02-15 12:14:00,
2013-02-15 06:19:00,34.9,26.8,30.69,NW,304,9.0,11.0,72,0.00,,---,0.00,VWS V14.01,2013-02-15 12:19:00,
2013-02-15 06:20:00,34.7,26.6,30.69,NW,313,4.0,12.0,72,0.00,,---,0.00,VWS V14.01,2013-02-15 12:20:00,
2013-02-15 06:24:00,34.6,26.9,30.69,NW,324,7.0,12.0,73,0.00,,---,0.00,VWS V14.01,2013-02-15 12:24:00,
2013-02-15 06:29:00,34.6,26.9,30.69,NNW,336,6.0,12.0,73,0.00,,---,0.00,VWS V14.01,2013-02-15 12:29:00,
2013-02-15 06:30:00,34.4,26.7,30.69,NW,315,4.0,12.0,73,0.00,,---,0.00,VWS V14.01,2013-02-15 12:30:00,
2013-02-15 06:34:00,34.3,26.6,30.69,NNW,340,4.0,10.0,73,0.00,,---,0.00,VWS V14.01,2013-02-15 12:34:00,
2013-02-15 06:39:00,34.0,26.3,30.69,NNW,340,3.0,11.0,73,0.00,,---,0.00,VWS V14.01,2013-02-15 12:39:00,
2013-02-15 06:40:00,34.0,26.3,30.69,NNW,340,5.0,11.0,73,0.00,,---,0.00,VWS V14.01,2013-02-15 12:40:00,
2013-02-15 06:44:00,34.0,26.3,30.69,North,349,6.0,6.0,73,0.00,,---,0.00,VWS V14.01,2013-02-15 12:44:00,
2013-02-15 06:49:00,33.8,26.7,30.69,North,360,5.0,9.0,75,0.00,,---,0.00,VWS V14.01,2013-02-15 12:49:00,
2013-02-15 06:50:00,33.7,26.3,30.69,NNW,334,5.0,9.0,74,0.00,,---,0.00,VWS V14.01,2013-02-15 12:50:00,
2013-02-15 06:54:00,33.5,26.1,30.69,NNW,335,6.0,6.0,74,0.00,,---,0.00,VWS V14.01,2013-02-15 12:54:00,
2013-02-15 06:59:00,33.4,26.3,30.69,NW,313,6.0,11.0,75,0.00,,---,0.00,VWS V14.01,2013-02-15 12:59:00,
2013-02-15 07:00:00,33.2,26.1,30.70,NNW,331,2.0,11.0,75,0.00,,---,0.00,VWS V14.01,2013-02-15 13:00:00,
2013-02-15 07:04:00,33.1,25.7,30.70,NNW,333,4.0,9.0,74,0.00,,---,0.00,VWS V14.01,2013-02-15 13:04:00,
2013-02-15 07:09:00,32.8,25.8,30.70,NW,322,7.0,13.0,75,0.00,,---,0.00,VWS V14.01,2013-02-15 13:09:00,
2013-02-15 07:10:00,32.8,25.8,30.70,NNW,343,6.0,13.0,75,0.00,,---,0.00,VWS V14.01,2013-02-15 13:10:00,
2013-02-15 07:14:00,32.7,25.7,30.70,NNW,331,7.0,11.0,75,0.00,,---,0.00,VWS V14.01,2013-02-15 13:14:00,
2013-02-15 07:19:00,32.7,25.7,30.71,North,350,6.0,13.0,75,0.00,,---,0.00,VWS V14.01,2013-02-15 13:19:00,
2013-02-15 07:20:00,32.5,25.8,30.71,NW,321,13.0,13.0,76,0.00,,---,0.00,VWS V14.01,2013-02-15 13:20:00,
2013-02-15 07:24:00,32.5,25.8,30.71,NW,319,4.0,13.0,76,0.00,,---,0.00,VWS V14.01,2013-02-15 13:24:00,
2013-02-15 07:29:00,32.2,25.5,30.71,NNW,331,7.0,13.0,76,0.00,,---,0.00,VWS V14.01,2013-02-15 13:29:00,
2013-02-15 07:30:00,32.2,25.5,30.72,NNW,331,11.0,13.0,76,0.00,,---,0.00,VWS V14.01,2013-02-15 13:30:00,
2013-02-15 07:34:00,32.1,25.4,30.72,NNW,341,5.0,11.0,76,0.00,,---,0.00,VWS V14.01,2013-02-15 13:34:00,
2013-02-15 07:39:00,31.9,25.2,30.72,North,360,4.0,12.0,76,0.00,,---,0.00,VWS V14.01,2013-02-15 13:39:00,
2013-02-15 07:40:00,31.9,25.2,30.72,NNE,29,2.0,12.0,76,0.00,,---,0.00,VWS V14.01,2013-02-15 13:40:00,
2013-02-15 07:44:00,31.8,25.1,30.72,NNE,15,3.0,9.0,76,0.00,,---,0.00,VWS V14.01,2013-02-15 13:44:00,
2013-02-15 07:49:00,31.8,25.1,30.72,NNW,331,4.0,12.0,76,0.00,,---,0.00,VWS V14.01,2013-02-15 13:49:00,
2013-02-15 07:50:00,31.8,25.1,30.72,North,360,9.0,12.0,76,0.00,,---,0.00,VWS V14.01,2013-02-15 13:50:00,
2013-02-15 07:54:00,31.8,25.1,30.72,ENE,61,3.0,14.0,76,0.00,,---,0.00,VWS V14.01,2013-02-15 13:54:00,
2013-02-15 07:59:00,31.8,25.4,30.72,NNW,339,2.0,14.0,77,0.00,,---,0.00,VWS V14.01,2013-02-15 13:59:00,
2013-02-15 08:00:00,31.8,25.4,30.73,North,5,5.0,14.0,77,0.00,,---,0.00,VWS V14.01,2013-02-15 14:00:00,
2013-02-15 08:04:00,31.8,25.4,30.73,NNW,331,3.0,9.0,77,0.00,,---,0.00,VWS V14.01,2013-02-15 14:04:00,
2013-02-15 08:09:00,31.9,25.5,30.73,NW,313,8.0,13.0,77,0.00,,---,0.00,VWS V14.01,2013-02-15 14:09:00,
2013-02-15 08:10:00,31.9,25.5,30.73,NNW,343,8.0,13.0,77,0.00,,---,0.00,VWS V14.01,2013-02-15 14:10:00,
2013-02-15 08:14:00,32.1,25.7,30.73,NW,315,4.0,12.0,77,0.00,,---,0.00,VWS V14.01,2013-02-15 14:14:00,
2013-02-15 08:19:00,32.2,25.8,30.74,WNW,297,7.0,12.0,77,0.00,,---,0.00,VWS V14.01,2013-02-15 14:19:00,
2013-02-15 08:20:00,32.2,25.8,30.74,North,9,6.0,12.0,77,0.00,,---,0.00,VWS V14.01,2013-02-15 14:20:00,
2013-02-15 08:24:00,32.2,25.8,30.74,North,360,4.0,9.0,77,0.00,,---,0.00,VWS V14.01,2013-02-15 14:24:00,
2013-02-15 08:29:00,32.4,26.0,30.74,NNW,336,9.0,12.0,77,0.00,,---,0.00,VWS V14.01,2013-02-15 14:29:00,
2013-02-15 08:30:00,32.4,26.0,30.75,NW,309,11.0,12.0,77,0.00,,---,0.00,VWS V14.01,2013-02-15 14:30:00,
2013-02-15 08:34:00,32.5,26.1,30.75,NNW,348,12.0,14.0,77,0.00,,---,0.00,VWS V14.01,2013-02-15 14:34:00,
2013-02-15 08:39:00,32.5,26.1,30.75,WNW,286,8.0,16.0,77,0.00,,---,0.00,VWS V14.01,2013-02-15 14:39:00,
2013-02-15 08:40:00,32.7,26.3,30.75,NW,310,10.0,16.0,77,0.00,,---,0.00,VWS V14.01,2013-02-15 14:40:00,
2013-02-15 08:44:00,32.7,26.3,30.75,North,360,9.0,12.0,77,0.00,,---,0.00,VWS V14.01,2013-02-15 14:44:00,
2013-02-15 08:49:00,32.8,26.4,30.75,NW,323,9.0,14.0,77,0.00,,---,0.00,VWS V14.01,2013-02-15 14:49:00,
2013-02-15 08:50:00,32.9,26.8,30.75,NNE,13,7.0,14.0,78,0.00,,---,0.00,VWS V14.01,2013-02-15 14:50:00,
2013-02-15 08:54:00,32.9,26.5,30.75,NNW,341,3.0,10.0,77,0.00,,---,0.00,VWS V14.01,2013-02-15 14:54:00,
2013-02-15 08:59:00,32.9,26.5,30.75,NNE,15,2.0,11.0,77,0.00,,---,0.00,VWS V14.01,2013-02-15 14:59:00,
2013-02-15 09:00:00,33.1,26.7,30.75,NNW,342,6.0,12.0,77,0.00,,---,0.00,VWS V14.01,2013-02-15 15:00:00,
2013-02-15 09:04:00,33.1,26.7,30.75,NNW,330,11.0,14.0,77,0.00,,---,0.00,VWS V14.01,2013-02-15 15:04:00,
2013-02-15 09:09:00,33.2,26.8,30.75,NNW,340,7.0,14.0,77,0.00,,---,0.00,VWS V14.01,2013-02-15 15:09:00,
2013-02-15 09:10:00,33.2,26.8,30.75,North,5,2.0,14.0,77,0.00,,---,0.00,VWS V14.01,2013-02-15 15:10:00,
2013-02-15 09:14:00,33.4,27.0,30.75,NNW,337,6.0,9.0,77,0.00,,---,0.00,VWS V14.01,2013-02-15 15:14:00,
2013-02-15 09:19:00,33.5,27.1,30.75,NNE,32,10.0,11.0,77,0.00,,---,0.00,VWS V14.01,2013-02-15 15:19:00,
2013-02-15 09:20:00,33.7,27.3,30.75,NNE,19,4.0,11.0,77,0.00,,---,0.00,VWS V14.01,2013-02-15 15:20:00,
2013-02-15 09:24:00,33.8,27.7,30.75,NNW,342,10.0,13.0,78,0.00,,---,0.00,VWS V14.01,2013-02-15 15:24:00,
2013-02-15 09:29:00,34.4,28.6,30.75,NNE,13,5.0,14.0,79,0.00,,---,0.00,VWS V14.01,2013-02-15 15:29:00,
2013-02-15 09:30:00,34.6,29.1,30.76,NE,48,5.0,15.0,80,0.00,,---,0.00,VWS V14.01,2013-02-15 15:30:00,
2013-02-15 09:34:00,34.7,29.2,30.76,NNE,24,5.0,16.0,80,0.00,,---,0.00,VWS V14.01,2013-02-15 15:34:00,
2013-02-15 09:39:00,34.7,29.2,30.76,NNW,333,10.0,16.0,80,0.00,,---,0.00,VWS V14.01,2013-02-15 15:39:00,
2013-02-15 09:40:00,34.7,29.2,30.76,NNW,336,5.0,16.0,80,0.00,,---,0.00,VWS V14.01,2013-02-15 15:40:00,
2013-02-15 09:44:00,34.7,29.2,30.76,NW,316,6.0,10.0,80,0.00,,---,0.00,VWS V14.01,2013-02-15 15:44:00,
2013-02-15 09:49:00,34.9,29.7,30.76,NW,315,9.0,10.0,81,0.00,,---,0.00,VWS V14.01,2013-02-15 15:49:00,
2013-02-15 09:50:00,35.0,29.8,30.76,North,360,10.0,12.0,81,0.00,,---,0.00,VWS V14.01,2013-02-15 15:50:00,
2013-02-15 09:54:00,35.0,29.5,30.76,NNE,17,3.0,12.0,80,0.00,,---,0.00,VWS V14.01,2013-02-15 15:54:00,
2013-02-15 09:59:00,35.0,29.5,30.76,North,349,3.0,12.0,80,0.00,,---,0.00,VWS V14.01,2013-02-15 15:59:00,
2013-02-15 10:00:00,35.2,29.7,30.76,NW,325,4.0,12.0,80,0.00,,---,0.00,VWS V14.01,2013-02-15 16:00:00,
2013-02-15 10:04:00,35.3,29.8,30.76,NNW,329,5.0,6.0,80,0.00,,---,0.00,VWS V14.01,2013-02-15 16:04:00,
2013-02-15 10:09:00,35.5,30.3,30.76,NE,40,8.0,9.0,81,0.00,,---,0.00,VWS V14.01,2013-02-15 16:09:00,
2013-02-15 10:10:00,35.6,30.4,30.76,North,351,3.0,9.0,81,0.00,,---,0.00,VWS V14.01,2013-02-15 16:10:00,
2013-02-15 10:14:00,35.8,30.5,30.76,NW,311,4.0,8.0,81,0.00,,---,0.00,VWS V14.01,2013-02-15 16:14:00,
2013-02-15 10:19:00,35.9,30.3,30.76,NE,44,3.0,10.0,80,0.00,,---,0.00,VWS V14.01,2013-02-15 16:19:00,
2013-02-15 10:20:00,36.0,30.4,30.76,NNE,18,3.0,11.0,80,0.00,,---,0.00,VWS V14.01,2013-02-15 16:20:00,
2013-02-15 10:24:00,36.2,30.6,30.76,NNE,15,7.0,7.0,80,0.00,,---,0.00,VWS V14.01,2013-02-15 16:24:00,
2013-02-15 10:29:00,36.3,30.7,30.76,North,5,4.0,10.0,80,0.00,,---,0.00,VWS V14.01,2013-02-15 16:29:00,
2013-02-15 10:30:00,36.5,30.6,30.76,North,9,3.0,10.0,79,0.00,,---,0.00,VWS V14.01,2013-02-15 16:30:00,
2013-02-15 10:34:00,36.6,30.7,30.76,NE,42,3.0,6.0,79,0.00,,---,0.00,VWS V14.01,2013-02-15 16:34:00,
2013-02-15 10:39:00,37.0,31.1,30.76,NE,49,10.0,11.0,79,0.00,,---,0.00,VWS V14.01,2013-02-15 16:39:00,
2013-02-15 10:40:00,37.2,31.3,30.76,North,5,3.0,11.0,79,0.00,,---,0.00,VWS V14.01,2013-02-15 16:40:00,
2013-02-15 10:44:00,37.3,31.1,30.76,WNW,291,7.0,11.0,78,0.00,,---,0.00,VWS V14.01,2013-02-15 16:44:00,
2013-02-15 10:49:00,37.6,31.4,30.76,NNW,341,6.0,11.0,78,0.00,,---,0.00,VWS V14.01,2013-02-15 16:49:00,
2013-02-15 10:50:00,37.6,31.1,30.76,NW,313,8.0,11.0,77,0.00,,---,0.00,VWS V14.01,2013-02-15 16:50:00,
2013-02-15 10:54:00,37.6,31.1,30.76,NW,304,6.0,10.0,77,0.00,,---,0.00,VWS V14.01,2013-02-15 16:54:00,
2013-02-15 10:59:00,38.0,31.8,30.76,NNE,30,3.0,10.0,78,0.00,,---,0.00,VWS V14.01,2013-02-15 16:59:00,
2013-02-15 11:00:00,38.2,31.6,30.76,NW,320,3.0,10.0,77,0.00,,---,0.00,VWS V14.01,2013-02-15 17:00:00,
2013-02-15 11:04:00,38.5,31.9,30.76,NNW,333,3.0,6.0,77,0.00,,---,0.00,VWS V14.01,2013-02-15 17:04:00,
2013-02-15 11:09:00,38.9,32.0,30.76,NNE,17,6.0,9.0,76,0.00,,---,0.00,VWS V14.01,2013-02-15 17:09:00,
2013-02-15 11:10:00,39.2,32.3,30.76,NNE,25,5.0,9.0,76,0.00,,---,0.00,VWS V14.01,2013-02-15 17:10:00,
2013-02-15 11:14:00,39.3,32.0,30.76,North,9,3.0,10.0,75,0.00,,---,0.00,VWS V14.01,2013-02-15 17:14:00,
2013-02-15 11:19:00,39.6,32.0,30.75,North,5,3.0,10.0,74,0.00,,---,0.00,VWS V14.01,2013-02-15 17:19:00,
2013-02-15 11:20:00,40.1,32.5,30.75,NNE,32,2.0,11.0,74,0.00,,---,0.00,VWS V14.01,2013-02-15 17:20:00,
2013-02-15 11:24:00,40.3,32.7,30.75,North,5,6.0,12.0,74,0.00,,---,0.00,VWS V14.01,2013-02-15 17:24:00,
2013-02-15 11:29:00,41.1,32.8,30.75,NNE,28,11.0,14.0,72,0.00,,---,0.00,VWS V14.01,2013-02-15 17:29:00,
2013-02-15 11:30:00,41.3,32.6,30.75,NNW,338,2.0,15.0,71,0.00,,---,0.00,VWS V14.01,2013-02-15 17:30:00,
2013-02-15 11:34:00,41.5,32.5,30.75,NNW,347,5.0,8.0,70,0.00,,---,0.00,VWS V14.01,2013-02-15 17:34:00,
2013-02-15 11:39:00,41.6,31.8,30.75,NW,316,4.0,12.0,68,0.00,,---,0.00,VWS V14.01,2013-02-15 17:39:00,
2013-02-15 11:40:00,41.5,31.4,30.75,WNW,285,6.0,12.0,67,0.00,,---,0.00,VWS V14.01,2013-02-15 17:40:00,
2013-02-15 11:44:00,41.3,31.2,30.75,NNE,29,13.0,13.0,67,0.00,,---,0.00,VWS V14.01,2013-02-15 17:44:00,
2013-02-15 11:49:00,41.1,31.4,30.74,ENE,57,6.0,13.0,68,0.00,,---,0.00,VWS V14.01,2013-02-15 17:49:00,
2013-02-15 11:50:00,41.3,31.9,30.74,NNW,331,5.0,13.0,69,0.00,,---,0.00,VWS V14.01,2013-02-15 17:50:00,
2013-02-15 11:54:00,41.6,32.2,30.74,NNW,340,4.0,10.0,69,0.00,,---,0.00,VWS V14.01,2013-02-15 17:54:00,
2013-02-15 11:59:00,42.1,32.0,30.74,NW,309,3.0,13.0,67,0.00,,---,0.00,VWS V14.01,2013-02-15 17:59:00,
2013-02-15 12:00:00,42.2,32.0,30.73,North,351,9.0,15.0,67,0.00,,---,0.00,VWS V14.01,2013-02-15 18:00:00,
2013-02-15 12:04:00,42.2,32.0,30.73,North,351,9.0,9.0,67,0.00,,---,0.00,VWS V14.01,2013-02-15 18:04:00,
2013-02-15 12:09:00,42.2,31.7,30.73,NW,308,12.0,12.0,66,0.00,,---,0.00,VWS V14.01,2013-02-15 18:09:00,
2013-02-15 12:10:00,42.3,31.8,30.73,NE,46,9.0,15.0,66,0.00,,---,0.00,VWS V14.01,2013-02-15 18:10:00,
2013-02-15 12:14:00,42.5,32.0,30.73,NNE,28,1.0,10.0,66,0.00,,---,0.00,VWS V14.01,2013-02-15 18:14:00,
2013-02-15 12:19:00,42.8,31.9,30.74,NNW,341,3.0,12.0,65,0.00,,---,0.00,VWS V14.01,2013-02-15 18:19:00,
2013-02-15 12:20:00,42.9,31.6,30.74,NNW,327,6.0,12.0,64,0.00,,---,0.00,VWS V14.01,2013-02-15 18:20:00,
2013-02-15 12:24:00,42.8,31.5,30.74,North,350,8.0,12.0,64,0.00,,---,0.00,VWS V14.01,2013-02-15 18:24:00,
2013-02-15 12:29:00,42.5,31.2,30.74,NW,319,3.0,12.0,64,0.00,,---,0.00,VWS V14.01,2013-02-15 18:29:00,
2013-02-15 12:30:00,42.5,31.6,30.74,NW,321,11.0,13.0,65,0.00,,---,0.00,VWS V14.01,2013-02-15 18:30:00,
2013-02-15 12:34:00,42.6,31.3,30.74,NW,313,13.0,15.0,64,0.00,,---,0.00,VWS V14.01,2013-02-15 18:34:00,
2013-02-15 12:39:00,42.9,31.6,30.74,NNW,329,13.0,15.0,64,0.00,,---,0.00,VWS V14.01,2013-02-15 18:39:00,
2013-02-15 12:40:00,42.9,31.2,30.74,North,349,6.0,15.0,63,0.00,,---,0.00,VWS V14.01,2013-02-15 18:40:00,
2013-02-15 12:44:00,43.1,30.6,30.74,NW,326,5.0,10.0,61,0.00,,---,0.00,VWS V14.01,2013-02-15 18:44:00,
2013-02-15 12:49:00,43.1,30.6,30.73,WNW,290,9.0,13.0,61,0.00,,---,0.00,VWS V14.01,2013-02-15 18:49:00,
2013-02-15 12:50:00,42.9,30.4,30.73,NNE,23,6.0,13.0,61,0.00,,---,0.00,VWS V14.01,2013-02-15 18:50:00,
2013-02-15 12:54:00,42.8,30.7,30.73,NNW,338,3.0,9.0,62,0.00,,---,0.00,VWS V14.01,2013-02-15 18:54:00,
2013-02-15 12:59:00,42.6,30.5,30.73,NNW,336,5.0,10.0,62,0.00,,---,0.00,VWS V14.01,2013-02-15 18:59:00,
2013-02-15 13:00:00,42.8,31.1,30.72,NNW,341,12.0,14.0,63,0.00,,---,0.00,VWS V14.01,2013-02-15 19:00:00,
2013-02-15 13:04:00,42.8,30.7,30.72,WNW,298,6.0,12.0,62,0.00,,---,0.00,VWS V14.01,2013-02-15 19:04:00,
2013-02-15 13:09:00,42.9,30.4,30.72,North,355,4.0,13.0,61,0.00,,---,0.00,VWS V14.01,2013-02-15 19:09:00,
2013-02-15 13:10:00,43.1,30.6,30.72,NNW,338,10.0,13.0,61,0.00,,---,0.00,VWS V14.01,2013-02-15 19:10:00,
2013-02-15 13:14:00,43.3,30.8,30.72,NW,321,5.0,11.0,61,0.00,,---,0.00,VWS V14.01,2013-02-15 19:14:00,
2013-02-15 13:19:00,43.6,30.6,30.72,North,5,4.0,11.0,60,0.00,,---,0.00,VWS V14.01,2013-02-15 19:19:00,
2013-02-15 13:20:00,43.8,30.0,30.72,NNW,330,9.0,11.0,58,0.00,,---,0.00,VWS V14.01,2013-02-15 19:20:00,
2013-02-15 13:24:00,43.8,29.6,30.72,WNW,303,7.0,15.0,57,0.00,,---,0.00,VWS V14.01,2013-02-15 19:24:00,
2013-02-15 13:29:00,43.5,29.7,30.72,NW,308,6.0,15.0,58,0.00,,---,0.00,VWS V14.01,2013-02-15 19:29:00,
2013-02-15 13:30:00,43.5,30.5,30.71,WSW,244,9.0,15.0,60,0.00,,---,0.00,VWS V14.01,2013-02-15 19:30:00,
2013-02-15 13:34:00,43.6,30.6,30.71,North,350,10.0,12.0,60,0.00,,---,0.00,VWS V14.01,2013-02-15 19:34:00,
2013-02-15 13:39:00,43.8,30.0,30.71,NW,313,9.0,14.0,58,0.00,,---,0.00,VWS V14.01,2013-02-15 19:39:00,
2013-02-15 13:40:00,43.6,29.8,30.71,NW,318,10.0,14.0,58,0.00,,---,0.00,VWS V14.01,2013-02-15 19:40:00,
2013-02-15 13:44:00,43.6,29.8,30.71,NE,45,2.0,11.0,58,0.00,,---,0.00,VWS V14.01,2013-02-15 19:44:00,
2013-02-15 13:49:00,43.6,29.8,30.71,NNE,28,5.0,13.0,58,0.00,,---,0.00,VWS V14.01,2013-02-15 19:49:00,
2013-02-15 13:50:00,43.6,29.8,30.71,NNE,28,2.0,13.0,58,0.00,,---,0.00,VWS V14.01,2013-02-15 19:50:00,
2013-02-15 13:53:00,43.6,29.8,30.71,NNW,346,3.0,6.0,58,0.00,,---,0.00,VWS V14.01,2013-02-15 19:53:00,
2013-02-15 13:59:00,44.1,29.9,30.71,NW,319,5.0,14.0,57,0.00,,---,0.00,VWS V14.01,2013-02-15 19:59:00,
2013-02-15 14:00:00,44.5,30.2,30.70,NW,308,3.0,14.0,57,0.00,,---,0.00,VWS V14.01,2013-02-15 20:00:00,
2013-02-15 14:04:00,44.6,30.3,30.70,NNW,342,5.0,7.0,57,0.00,,---,0.00,VWS V14.01,2013-02-15 20:04:00,
2013-02-15 14:09:00,45.2,30.0,30.70,NW,317,6.0,15.0,55,0.00,,---,0.00,VWS V14.01,2013-02-15 20:09:00,
2013-02-15 14:10:00,45.5,29.8,30.70,North,11,6.0,15.0,54,0.00,,---,0.00,VWS V14.01,2013-02-15 20:10:00,
2013-02-15 14:14:00,45.7,30.0,30.70,NNW,335,15.0,15.0,54,0.00,,---,0.00,VWS V14.01,2013-02-15 20:14:00,
2013-02-15 14:18:00,46.0,30.3,30.70,NNW,331,6.0,15.0,54,0.00,,---,0.00,VWS V14.01,2013-02-15 20:18:00,
2013-02-15 14:20:00,46.1,30.4,30.70,NNW,335,6.0,15.0,54,0.00,,---,0.00,VWS V14.01,2013-02-15 20:20:00,
2013-02-15 14:23:00,46.1,29.9,30.70,NNW,330,7.0,14.0,53,0.00,,---,0.00,VWS V14.01,2013-02-15 20:23:00,
2013-02-15 14:28:00,46.1,29.5,30.70,NW,323,5.0,14.0,52,0.00,,---,0.00,VWS V14.01,2013-02-15 20:28:00,
2013-02-15 14:30:00,46.1,29.5,30.70,NW,308,7.0,16.0,52,0.00,,---,0.00,VWS V14.01,2013-02-15 20:30:00,
2013-02-15 14:33:00,46.1,29.5,30.70,NW,309,5.0,10.0,52,0.00,,---,0.00,VWS V14.01,2013-02-15 20:33:00,
2013-02-15 14:38:00,46.0,29.4,30.70,NNW,333,5.0,17.0,52,0.00,,---,0.00,VWS V14.01,2013-02-15 20:38:00,
2013-02-15 14:40:00,45.8,29.2,30.70,North,355,12.0,17.0,52,0.00,,---,0.00,VWS V14.01,2013-02-15 20:40:00,
2013-02-15 14:43:00,45.7,28.1,30.70,NE,44,7.0,13.0,50,0.00,,---,0.00,VWS V14.01,2013-02-15 20:43:00,
2013-02-15 14:48:00,45.4,28.4,30.69,NNW,346,4.0,13.0,51,0.00,,---,0.00,VWS V14.01,2013-02-15 20:48:00,
2013-02-15 14:50:00,45.5,28.4,30.69,NW,308,9.0,13.0,51,0.00,,---,0.00,VWS V14.01,2013-02-15 20:50:00,
2013-02-15 14:53:00,45.5,28.4,30.69,NNW,328,5.0,14.0,51,0.00,,---,0.00,VWS V14.01,2013-02-15 20:53:00,
2013-02-15 14:58:00,45.7,28.1,30.69,NW,322,7.0,14.0,50,0.00,,---,0.00,VWS V14.01,2013-02-15 20:58:00,
2013-02-15 15:00:00,45.7,28.1,30.69,NNE,22,6.0,14.0,50,0.00,,---,0.00,VWS V14.01,2013-02-15 21:00:00,
2013-02-15 15:03:00,45.5,28.4,30.69,West,273,8.0,10.0,51,0.00,,---,0.00,VWS V14.01,2013-02-15 21:03:00,
2013-02-15 15:08:00,45.7,29.1,30.69,NW,309,4.0,11.0,52,0.00,,---,0.00,VWS V14.01,2013-02-15 21:08:00,
2013-02-15 15:10:00,45.8,28.7,30.69,NNW,329,4.0,11.0,51,0.00,,---,0.00,VWS V14.01,2013-02-15 21:10:00,
2013-02-15 15:13:00,46.0,28.9,30.69,NW,326,3.0,5.0,51,0.00,,---,0.00,VWS V14.01,2013-02-15 21:13:00,
2013-02-15 15:18:00,46.0,28.4,30.69,NNW,346,11.0,13.0,50,0.00,,---,0.00,VWS V14.01,2013-02-15 21:18:00,
2013-02-15 15:20:00,46.0,28.4,30.69,WNW,296,9.0,13.0,50,0.00,,---,0.00,VWS V14.01,2013-02-15 21:20:00,
2013-02-15 15:23:00,45.8,28.7,30.69,NW,308,4.0,11.0,51,0.00,,---,0.00,VWS V14.01,2013-02-15 21:23:00,
2013-02-15 15:28:00,45.8,28.2,30.69,NNW,332,12.0,14.0,50,0.00,,---,0.00,VWS V14.01,2013-02-15 21:28:00,
2013-02-15 15:30:00,45.8,28.2,30.69,NNW,334,4.0,14.0,50,0.00,,---,0.00,VWS V14.01,2013-02-15 21:30:00,
2013-02-15 15:33:00,45.8,28.7,30.69,NNW,337,10.0,10.0,51,0.00,,---,0.00,VWS V14.01,2013-02-15 21:33:00,
2013-02-15 15:38:00,45.7,28.1,30.69,NNE,20,11.0,13.0,50,0.00,,---,0.00,VWS V14.01,2013-02-15 21:38:00,
2013-02-15 15:40:00,45.4,27.9,30.69,NNW,329,4.0,14.0,50,0.00,,---,0.00,VWS V14.01,2013-02-15 21:40:00,
2013-02-15 15:43:00,45.2,28.2,30.69,NNW,336,5.0,7.0,51,0.00,,---,0.00,VWS V14.01,2013-02-15 21:43:00,
2013-02-15 15:48:00,45.1,28.5,30.70,NNW,346,11.0,12.0,52,0.00,,---,0.00,VWS V14.01,2013-02-15 21:48:00,
2013-02-15 15:50:00,45.1,28.1,30.70,NNW,336,6.0,12.0,51,0.00,,---,0.00,VWS V14.01,2013-02-15 21:50:00,
2013-02-15 15:53:00,45.1,28.1,30.70,WNW,286,2.0,6.0,51,0.00,,---,0.00,VWS V14.01,2013-02-15 21:53:00,
2013-02-15 15:58:00,45.1,28.1,30.70,NNW,338,5.0,14.0,51,0.00,,---,0.00,VWS V14.01,2013-02-15 21:58:00,
2013-02-15 16:00:00,45.1,28.1,30.70,WNW,303,12.0,15.0,51,0.00,,---,0.00,VWS V14.01,2013-02-15 22:00:00,
2013-02-15 16:03:00,45.1,28.1,30.70,WNW,293,13.0,13.0,51,0.00,,---,0.00,VWS V14.01,2013-02-15 22:03:00,
2013-02-15 16:08:00,44.8,27.3,30.70,North,355,5.0,14.0,50,0.00,,---,0.00,VWS V14.01,2013-02-15 22:08:00,
2013-02-15 16:10:00,44.5,27.0,30.70,NW,310,2.0,14.0,50,0.00,,---,0.00,VWS V14.01,2013-02-15 22:10:00,
2013-02-15 16:13:00,44.3,27.3,30.70,NNW,329,4.0,7.0,51,0.00,,---,0.00,VWS V14.01,2013-02-15 22:13:00,
2013-02-15 16:18:00,44.2,27.2,30.71,NW,309,5.0,17.0,51,0.00,,---,0.00,VWS V14.01,2013-02-15 22:18:00,
2013-02-15 16:20:00,44.1,26.7,30.71,WNW,289,9.0,17.0,50,0.00,,---,0.00,VWS V14.01,2013-02-15 22:20:00,
2013-02-15 16:23:00,44.1,27.1,30.71,NNW,329,8.0,11.0,51,0.00,,---,0.00,VWS V14.01,2013-02-15 22:23:00,
2013-02-15 16:28:00,43.3,27.3,30.71,WNW,286,9.0,11.0,53,0.01,,---,0.01,VWS V14.01,2013-02-15 22:28:00,
2013-02-15 16:30:00,41.3,15.1,30.72,NW,315,5.0,13.0,34,0.02,,---,0.02,VWS V14.01,2013-02-15 22:30:00,
2013-02-15 16:33:00,40.6,15.1,30.72,WNW,292,6.0,12.0,35,0.02,,---,0.02,VWS V14.01,2013-02-15 22:33:00,
2013-02-15 16:38:00,39.6,14.2,30.72,WNW,295,11.0,12.0,35,0.02,,---,0.02,VWS V14.01,2013-02-15 22:38:00,
2013-02-15 16:40:00,39.6,15.5,30.72,NW,306,5.0,12.0,37,0.02,,---,0.02,VWS V14.01,2013-02-15 22:40:00,
2013-02-15 16:43:00,39.5,14.1,30.72,NW,306,5.0,10.0,35,0.02,,---,0.02,VWS V14.01,2013-02-15 22:43:00,
2013-02-15 16:48:00,39.5,14.1,30.72,NW,305,3.0,12.0,35,0.02,,---,0.02,VWS V14.01,2013-02-15 22:48:00,
2013-02-15 16:50:00,39.3,13.9,30.72,WNW,288,5.0,13.0,35,0.02,,---,0.02,VWS V14.01,2013-02-15 22:50:00,
2013-02-15 16:53:00,39.3,14.6,30.72,NW,308,13.0,13.0,36,0.02,,---,0.02,VWS V14.01,2013-02-15 22:53:00,
2013-02-15 16:58:00,39.1,13.8,30.72,NW,321,10.0,16.0,35,0.02,,---,0.02,VWS V14.01,2013-02-15 22:58:00,
2013-02-15 17:00:00,38.8,12.9,30.73,NW,321,8.0,16.0,34,0.02,,---,0.02,VWS V14.01,2013-02-15 23:00:00,
2013-02-15 17:03:00,38.8,13.5,30.73,WNW,302,6.0,12.0,35,0.02,,---,0.02,VWS V14.01,2013-02-15 23:03:00,
2013-02-15 17:08:00,38.6,13.3,30.73,WNW,284,6.0,12.0,35,0.02,,---,0.02,VWS V14.01,2013-02-15 23:08:00,
2013-02-15 17:10:00,38.6,14.0,30.73,NW,310,4.0,13.0,36,0.02,,---,0.02,VWS V14.01,2013-02-15 23:10:00,
2013-02-15 17:13:00,38.5,13.9,30.73,West,273,9.0,11.0,36,0.02,,---,0.02,VWS V14.01,2013-02-15 23:13:00,
2013-02-15 17:19:00,38.2,13.6,30.73,WNW,290,9.0,15.0,36,0.02,,---,0.02,VWS V14.01,2013-02-15 23:19:00,
2013-02-15 17:20:00,37.9,13.4,30.73,WNW,284,13.0,15.0,36,0.02,,---,0.02,VWS V14.01,2013-02-15 23:20:00,
2013-02-15 17:24:00,37.8,12.6,30.73,WNW,288,11.0,17.0,35,0.02,,---,0.02,VWS V14.01,2013-02-15 23:24:00,
2013-02-15 17:28:00,37.5,13.0,30.73,WNW,287,9.0,17.0,36,0.02,,---,0.02,VWS V14.01,2013-02-15 23:28:00,
2013-02-15 17:30:00,37.5,12.4,30.73,WNW,282,6.0,17.0,35,0.02,,---,0.02,VWS V14.01,2013-02-15 23:30:00,
2013-02-15 17:34:00,37.3,12.2,30.73,WNW,303,10.0,10.0,35,0.00,,---,0.02,VWS V14.01,2013-02-15 23:34:00,
2013-02-15 17:39:00,37.2,13.3,30.73,WNW,300,4.0,10.0,37,0.00,,---,0.02,VWS V14.01,2013-02-15 23:39:00,
2013-02-15 17:40:00,37.0,13.2,30.73,WNW,296,7.0,10.0,37,0.00,,---,0.02,VWS V14.01,2013-02-15 23:40:00,
2013-02-15 17:44:00,37.0,13.8,30.73,NW,306,7.0,11.0,38,0.00,,---,0.02,VWS V14.01,2013-02-15 23:44:00,
2013-02-15 17:49:00,36.9,13.1,30.73,NW,321,3.0,13.0,37,0.00,,---,0.02,VWS V14.01,2013-02-15 23:49:00,
2013-02-15 17:50:00,36.8,13.6,30.73,WNW,301,4.0,13.0,38,0.00,,---,0.02,VWS V14.01,2013-02-15 23:50:00,
2013-02-15 17:54:00,36.6,13.4,30.73,NNW,338,5.0,9.0,38,0.00,,---,0.02,VWS V14.01,2013-02-15 23:54:00,
2013-02-15 17:58:00,36.5,13.3,30.73,NW,318,6.0,12.0,38,0.00,,---,0.02,VWS V14.01,2013-02-15 23:58:00,
2013-02-15 18:00:00,36.3,13.7,30.74,NNW,329,8.0,12.0,39,0.00,,---,0.02,VWS V14.01,2013-02-16 00:00:00,
2013-02-15 18:03:00,36.2,13.6,30.74,NW,308,3.0,10.0,39,0.00,,---,0.02,VWS V14.01,2013-02-16 00:03:00,
2013-02-15 18:08:00,36.2,13.6,30.74,NNW,328,4.0,10.0,39,0.00,,---,0.02,VWS V14.01,2013-02-16 00:08:00,
2013-02-15 18:10:00,36.2,13.6,30.74,NNW,328,4.0,10.0,39,0.00,,---,0.02,VWS V14.01,2013-02-16 00:10:00,
2013-02-15 18:13:00,35.6,12.5,30.74,NW,313,10.0,10.0,38,0.00,,---,0.02,VWS V14.01,2013-02-16 00:13:00,
2013-02-15 18:18:00,35.5,13.0,30.75,NW,306,7.0,10.0,39,0.00,,---,0.02,VWS V14.01,2013-02-16 00:18:00,
2013-02-15 18:20:00,35.3,12.8,30.75,WNW,287,8.0,10.0,39,0.00,,---,0.02,VWS V14.01,2013-02-16 00:20:00,
2013-02-15 18:23:00,35.2,13.3,30.75,NW,304,5.0,8.0,40,0.00,,---,0.02,VWS V14.01,2013-02-16 00:23:00,
2013-02-15 18:28:00,35.0,13.1,30.75,WNW,301,4.0,8.0,40,0.00,,---,0.02,VWS V14.01,2013-02-16 00:28:00,
2013-02-15 18:30:00,34.9,13.0,30.75,WNW,303,3.0,8.0,40,0.00,,---,0.02,VWS V14.01,2013-02-16 00:30:00,
2013-02-15 18:33:00,34.7,12.9,30.75,NNW,333,3.0,6.0,40,0.00,,---,0.02,VWS V14.01,2013-02-16 00:33:00,
2013-02-15 18:38:00,34.6,13.3,30.75,NW,312,4.0,6.0,41,0.00,,---,0.02,VWS V14.01,2013-02-16 00:38:00,
2013-02-15 18:40:00,34.4,13.1,30.75,NW,309,6.0,6.0,41,0.00,,---,0.02,VWS V14.01,2013-02-16 00:40:00,
2013-02-15 18:43:00,34.4,13.1,30.75,NW,309,3.0,6.0,41,0.00,,---,0.02,VWS V14.01,2013-02-16 00:43:00,
2013-02-15 18:48:00,34.1,12.9,30.76,NW,323,5.0,6.0,41,0.00,,---,0.02,VWS V14.01,2013-02-16 00:48:00,
2013-02-15 18:50:00,34.1,13.4,30.76,NW,315,3.0,7.0,42,0.00,,---,0.02,VWS V14.01,2013-02-16 00:50:00,
2013-02-15 18:53:00,34.0,13.3,30.76,NW,305,4.0,6.0,42,0.00,,---,0.02,VWS V14.01,2013-02-16 00:53:00,
2013-02-15 18:58:00,33.8,13.1,30.76,NW,321,2.0,8.0,42,0.00,,---,0.02,VWS V14.01,2013-02-16 00:58:00,
2013-02-15 19:00:00,33.7,13.6,30.76,NNW,334,4.0,8.0,43,0.00,,---,0.02,VWS V14.01,2013-02-16 01:00:00,
2013-02-15 19:03:00,33.7,13.6,30.76,NNW,331,4.0,5.0,43,0.00,,---,0.02,VWS V14.01,2013-02-16 01:03:00,
2013-02-15 19:08:00,33.5,13.4,30.76,NW,314,3.0,9.0,43,0.00,,---,0.02,VWS V14.01,2013-02-16 01:08:00,
2013-02-15 19:10:00,33.4,13.3,30.76,NW,319,5.0,9.0,43,0.00,,---,0.02,VWS V14.01,2013-02-16 01:10:00,
2013-02-15 19:13:00,33.2,13.1,30.76,WNW,300,6.0,6.0,43,0.00,,---,0.02,VWS V14.01,2013-02-16 01:13:00,
2013-02-15 19:18:00,33.1,13.1,30.77,NW,317,2.0,6.0,43,0.00,,---,0.02,VWS V14.01,2013-02-16 01:18:00,
2013-02-15 19:20:00,33.1,13.1,30.77,NW,321,2.0,6.0,43,0.00,,---,0.02,VWS V14.01,2013-02-16 01:20:00,
2013-02-15 19:24:00,32.9,12.9,30.77,NW,321,2.0,4.0,43,0.00,,---,0.02,VWS V14.01,2013-02-16 01:24:00,
2013-02-15 19:29:00,32.8,12.8,30.77,NW,321,3.0,4.0,43,0.00,,---,0.02,VWS V14.01,2013-02-16 01:29:00,
2013-02-15 19:30:00,32.8,12.8,30.77,NW,320,4.0,5.0,43,0.00,,---,0.02,VWS V14.01,2013-02-16 01:30:00,
2013-02-15 19:33:00,32.7,12.7,30.77,NW,320,1.0,4.0,43,0.00,,---,0.02,VWS V14.01,2013-02-16 01:33:00,
2013-02-15 19:38:00,32.5,13.0,30.77,NW,323,3.0,6.0,44,0.00,,---,0.02,VWS V14.01,2013-02-16 01:38:00,
2013-02-15 19:40:00,32.5,13.0,30.77,NW,323,2.0,6.0,44,0.00,,---,0.02,VWS V14.01,2013-02-16 01:40:00,
2013-02-15 19:43:00,32.4,12.9,30.77,NW,323,2.0,3.0,44,0.00,,---,0.02,VWS V14.01,2013-02-16 01:43:00,
2013-02-15 19:48:00,32.2,12.8,30.77,NW,323,1.0,5.0,44,0.00,,---,0.02,VWS V14.01,2013-02-16 01:48:00,
2013-02-15 19:50:00,32.2,12.8,30.77,NW,323,0.0,5.0,44,0.00,,---,0.02,VWS V14.01,2013-02-16 01:50:00,
2013-02-15 19:53:00,32.2,12.8,30.77,NW,323,0.0,0.0,44,0.00,,---,0.02,VWS V14.01,2013-02-16 01:53:00,
2013-02-15 19:58:00,31.9,13.0,30.77,NW,323,0.0,2.0,45,0.00,,---,0.02,VWS V14.01,2013-02-16 01:58:00,
2013-02-15 20:00:00,31.9,13.0,30.77,NW,323,0.0,2.0,45,0.00,,---,0.02,VWS V14.01,2013-02-16 02:00:00,
2013-02-15 20:03:00,31.8,12.9,30.77,NW,323,1.0,1.0,45,0.00,,---,0.02,VWS V14.01,2013-02-16 02:03:00,
2013-02-15 20:08:00,31.6,12.7,30.77,NW,323,3.0,3.0,45,0.00,,---,0.02,VWS V14.01,2013-02-16 02:08:00,
2013-02-15 20:10:00,31.5,13.1,30.77,NW,323,1.0,3.0,46,0.00,,---,0.02,VWS V14.01,2013-02-16 02:10:00,
2013-02-15 20:13:00,31.3,12.9,30.77,NW,323,1.0,2.0,46,0.00,,---,0.02,VWS V14.01,2013-02-16 02:13:00,
2013-02-15 20:18:00,31.0,12.7,30.77,NW,323,0.0,2.0,46,0.00,,---,0.02,VWS V14.01,2013-02-16 02:18:00,
2013-02-15 20:20:00,31.0,13.1,30.77,NW,323,0.0,2.0,47,0.00,,---,0.02,VWS V14.01,2013-02-16 02:20:00,
2013-02-15 20:24:00,30.9,13.1,30.77,NW,323,0.0,1.0,47,0.00,,---,0.02,VWS V14.01,2013-02-16 02:24:00,
2013-02-15 20:29:00,30.6,13.7,30.77,NW,323,0.0,1.0,49,0.00,,---,0.02,VWS V14.01,2013-02-16 02:29:00,
2013-02-15 20:30:00,30.4,14.0,30.78,NW,323,3.0,3.0,50,0.00,,---,0.02,VWS V14.01,2013-02-16 02:30:00,
2013-02-15 20:34:00,30.3,13.9,30.78,NW,323,1.0,3.0,50,0.00,,---,0.02,VWS V14.01,2013-02-16 02:34:00,
2013-02-15 20:39:00,30.0,14.1,30.78,NW,323,0.0,4.0,51,0.00,,---,0.02,VWS V14.01,2013-02-16 02:39:00,
2013-02-15 20:40:00,29.8,14.3,30.78,NW,323,0.0,4.0,52,0.00,,---,0.02,VWS V14.01,2013-02-16 02:40:00,
2013-02-15 20:44:00,29.7,14.2,30.78,NW,323,0.0,1.0,52,0.00,,---,0.02,VWS V14.01,2013-02-16 02:44:00,
2013-02-15 20:49:00,29.4,14.0,30.78,NW,323,3.0,3.0,52,0.00,,---,0.02,VWS V14.01,2013-02-16 02:49:00,
2013-02-15 20:50:00,29.3,13.9,30.78,NW,323,0.0,3.0,52,0.00,,---,0.02,VWS V14.01,2013-02-16 02:50:00,
2013-02-15 20:54:00,29.1,13.7,30.78,NW,323,0.0,2.0,52,0.00,,---,0.02,VWS V14.01,2013-02-16 02:54:00,
2013-02-15 20:59:00,29.0,13.6,30.78,NW,323,0.0,2.0,52,0.00,,---,0.02,VWS V14.01,2013-02-16 02:59:00,
2013-02-15 21:00:00,28.8,13.4,30.78,NW,323,0.0,2.0,52,0.00,,---,0.02,VWS V14.01,2013-02-16 03:00:00,
2013-02-15 21:04:00,28.8,13.8,30.78,NW,323,0.0,1.0,53,0.00,,---,0.02,VWS V14.01,2013-02-16 03:04:00,
2013-02-15 21:09:00,28.7,13.8,30.78,NW,323,0.0,1.0,53,0.00,,---,0.02,VWS V14.01,2013-02-16 03:09:00,
2013-02-15 21:10:00,28.5,13.6,30.78,NW,323,0.0,1.0,53,0.00,,---,0.02,VWS V14.01,2013-02-16 03:10:00,
2013-02-15 21:14:00,28.4,13.9,30.78,NW,323,1.0,2.0,54,0.00,,---,0.02,VWS V14.01,2013-02-16 03:14:00,
2013-02-15 21:19:00,28.2,14.5,30.79,NW,323,0.0,2.0,56,0.00,,---,0.02,VWS V14.01,2013-02-16 03:19:00,
2013-02-15 21:20:00,28.1,14.4,30.79,NW,323,0.0,2.0,56,0.00,,---,0.02,VWS V14.01,2013-02-16 03:20:00,
2013-02-15 21:24:00,27.9,14.6,30.79,NW,323,0.0,0.0,57,0.00,,---,0.02,VWS V14.01,2013-02-16 03:24:00,
2013-02-15 21:29:00,27.8,14.6,30.79,NW,323,0.0,1.0,57,0.00,,---,0.02,VWS V14.01,2013-02-16 03:29:00,
2013-02-15 21:30:00,27.6,14.4,30.78,NW,323,1.0,1.0,57,0.00,,---,0.02,VWS V14.01,2013-02-16 03:30:00,
2013-02-15 21:34:00,27.5,14.7,30.78,NW,323,0.0,1.0,58,0.00,,---,0.02,VWS V14.01,2013-02-16 03:34:00,
2013-02-15 21:39:00,27.2,14.4,30.78,NW,323,0.0,1.0,58,0.00,,---,0.02,VWS V14.01,2013-02-16 03:39:00,
2013-02-15 21:40:00,27.0,14.2,30.78,NW,323,0.0,1.0,58,0.00,,---,0.02,VWS V14.01,2013-02-16 03:40:00,
2013-02-15 21:44:00,26.9,14.1,30.78,NW,323,0.0,0.0,58,0.00,,---,0.02,VWS V14.01,2013-02-16 03:44:00,
2013-02-15 21:49:00,26.6,14.2,30.78,NW,323,0.0,0.0,59,0.00,,---,0.02,VWS V14.01,2013-02-16 03:49:00,
2013-02-15 21:50:00,26.4,14.0,30.78,NW,323,0.0,0.0,59,0.00,,---,0.02,VWS V14.01,2013-02-16 03:50:00,
2013-02-15 21:54:00,26.3,13.9,30.78,NW,323,0.0,0.0,59,0.00,,---,0.02,VWS V14.01,2013-02-16 03:54:00,
2013-02-15 21:59:00,26.0,14.0,30.78,NW,323,0.0,0.0,60,0.00,,---,0.02,VWS V14.01,2013-02-16 03:59:00,
2013-02-15 22:00:00,25.8,13.9,30.78,NW,323,0.0,0.0,60,0.00,,---,0.02,VWS V14.01,2013-02-16 04:00:00,
2013-02-15 22:04:00,25.7,13.8,30.78,NW,323,0.0,0.0,60,0.00,,---,0.02,VWS V14.01,2013-02-16 04:04:00,
2013-02-15 22:08:00,25.4,13.5,30.78,NW,323,0.0,0.0,60,0.00,,---,0.02,VWS V14.01,2013-02-16 04:08:00,
2013-02-15 22:10:00,25.1,13.2,30.78,NW,323,0.0,0.0,60,0.00,,---,0.02,VWS V14.01,2013-02-16 04:10:00,
2013-02-15 22:13:00,25.0,13.1,30.78,NW,323,0.0,0.0,60,0.00,,---,0.02,VWS V14.01,2013-02-16 04:13:00,
2013-02-15 22:18:00,24.7,13.2,30.77,NW,323,0.0,0.0,61,0.00,,---,0.02,VWS V14.01,2013-02-16 04:18:00,
2013-02-15 22:20:00,24.5,13.0,30.77,NW,323,0.0,0.0,61,0.00,,---,0.02,VWS V14.01,2013-02-16 04:20:00,
2013-02-15 22:23:00,24.4,12.9,30.77,NW,323,0.0,0.0,61,0.00,,---,0.02,VWS V14.01,2013-02-16 04:23:00,
2013-02-15 22:28:00,24.1,12.6,30.77,NW,323,0.0,1.0,61,0.00,,---,0.02,VWS V14.01,2013-02-16 04:28:00,
2013-02-15 22:30:00,23.9,12.4,30.77,NW,323,0.0,1.0,61,0.00,,---,0.02,VWS V14.01,2013-02-16 04:30:00,
2013-02-15 22:33:00,23.8,12.3,30.77,NW,323,0.0,0.0,61,0.00,,---,0.02,VWS V14.01,2013-02-16 04:33:00,
2013-02-15 22:40:00,23.5,12.4,30.77,North,0,0.0,0.0,62,0.00,,---,0.02,VWS V14.01,2013-02-16 04:40:00,
2013-02-15 22:50:00,23.0,11.9,30.76,North,0,0.0,0.0,62,0.00,,---,0.02,VWS V14.01,2013-02-16 04:50:00,
2013-02-15 23:00:00,22.5,11.5,30.76,North,0,0.0,0.0,62,0.00,,---,0.02,VWS V14.01,2013-02-16 05:00:00,
2013-02-15 23:10:00,22.2,11.5,30.76,North,0,0.0,0.0,63,0.00,,---,0.02,VWS V14.01,2013-02-16 05:10:00,
2013-02-15 23:20:00,21.8,11.2,30.75,North,0,0.0,0.0,63,0.00,,---,0.02,VWS V14.01,2013-02-16 05:20:00,
2013-02-15 23:30:00,21.3,10.7,30.75,North,0,0.0,0.0,63,0.00,,---,0.02,VWS V14.01,2013-02-16 05:30:00,
2013-02-15 23:40:00,20.8,10.6,30.75,North,0,0.0,0.0,64,0.00,,---,0.02,VWS V14.01,2013-02-16 05:40:00,
2013-02-15 23:50:00,20.5,11.0,30.75,North,0,0.0,0.0,66,0.00,,---,0.02,VWS V14.01,2013-02-16 05:50:00,